Austin, MN

11:36 AM CDT on March 28, 2017 (GMT -0500)
Austin Municipal

Weather History for KAUM - February, 2014

Change the Weather History Date:

Thursday, February 6, 2014

  Actual Average Record
Temperature  
Mean Temperature -4 °F -  
Max Temperature 3 °F 25 °F 42 °F (2005)
Min Temperature -11 °F 11 °F -11 °F (2014)
Degree Days  
Heating Degree Days 69    
Moisture  
Dew Point -11 °F    
Average Humidity 74    
Maximum Humidity 84    
Minimum Humidity 61    
Precipitation  
Precipitation 0.00 in - - ()
Sea Level Pressure  
Sea Level Pressure 30.35 in    
Wind  
Wind Speed 10 mph (West)    
Max Wind Speed 17 mph    
Max Gust Speed 23 mph    
Visibility 10 miles    
Events Snow    
Averages and records for this station are not official NWS values.
T = Trace of Precipitation, MM = Missing Value Source: NWS Daily Summary

Daily Weather History Graph

Daily Weather History Graph

Search for Another Location

Airport or City:

Trip Planner

Search our weather history database for the weather conditions in past years. The results will help you decide how hot, cold, wet, or windy it might be!

Date:

Astronomy

Feb. 06, 2014 Rise Set
Actual Time 7:22 AM CST 5:29 PM CST
Civil Twilight 6:52 AM CST 5:59 PM CST
Nautical Twilight 6:18 AM CST 6:33 PM CST
Astronomical Twilight 5:44 AM CST 7:07 PM CST
Moon 11:01 AM CST (2/6) 12:38 AM CST (2/6)
Length of Visible Light 11h 07m
Length of Day
10h 07m
Waxing Crescent, 49% of the Moon is Illuminated
Feb 6
Waxing Crescent
Feb 6
First Quarter
Feb 14
Full
Feb 22
Last Quarter
Mar 1
New

Hourly Weather History & Observations

Time (CST) Temp. Windchill Dew Point Humidity Pressure Visibility Wind Dir Wind Speed Gust Speed Precip Events Conditions
12:15 AM -7.6 °F -25.7 °F -13.0 °F 77% 30.45 in 10.0 mi WNW 10.4 mph - N/A   Clear
12:34 AM -7.6 °F -25.7 °F -13.0 °F 77% 30.44 in 10.0 mi WNW 10.4 mph - N/A   Clear
12:55 AM -7.6 °F -26.6 °F -13.0 °F 77% 30.43 in 10.0 mi WNW 11.5 mph - N/A   Clear
1:15 AM -7.6 °F -24.6 °F -13.0 °F 77% 30.43 in 10.0 mi NW 9.2 mph - N/A   Clear
1:34 AM -7.6 °F -23.4 °F -14.8 °F 71% 30.43 in 10.0 mi NW 8.1 mph - N/A   Clear
1:55 AM -7.6 °F -24.6 °F -14.8 °F 71% 30.43 in 10.0 mi WNW 9.2 mph - N/A   Clear
2:15 AM -9.4 °F -26.8 °F -14.8 °F 77% 30.43 in 10.0 mi WNW 9.2 mph - N/A   Clear
2:34 AM -9.4 °F -28.9 °F -14.8 °F 77% 30.43 in 10.0 mi WNW 11.5 mph - N/A   Clear
2:55 AM -9.4 °F -26.8 °F -14.8 °F 77% 30.42 in 10.0 mi WNW 9.2 mph 16.1 mph N/A   Clear
3:15 AM -9.4 °F -26.8 °F -14.8 °F 77% 30.42 in 10.0 mi WNW 9.2 mph - N/A   Scattered Clouds
3:34 AM -7.6 °F -23.4 °F -14.8 °F 71% 30.42 in 10.0 mi WNW 8.1 mph - N/A   Overcast
3:55 AM -7.6 °F -24.6 °F -13.0 °F 77% 30.42 in 10.0 mi WNW 9.2 mph - N/A   Overcast
4:15 AM -9.4 °F -24.3 °F -14.8 °F 77% 30.42 in 10.0 mi West 6.9 mph - N/A   Mostly Cloudy
4:35 AM -9.4 °F -25.6 °F -14.8 °F 77% 30.42 in 10.0 mi West 8.1 mph - N/A   Mostly Cloudy
4:55 AM -9.4 °F -24.3 °F -14.8 °F 77% 30.42 in 10.0 mi West 6.9 mph - N/A   Scattered Clouds
5:14 AM -9.4 °F -24.3 °F -14.8 °F 77% 30.41 in 7.0 mi West 6.9 mph - N/A   Clear
5:35 AM -9.4 °F -24.3 °F -14.8 °F 77% 30.41 in 4.0 mi West 6.9 mph - N/A Snow Light Snow
5:55 AM -11.2 °F -24.8 °F -14.8 °F 84% 30.41 in 1.5 mi West 5.8 mph - N/A Snow Light Snow
6:14 AM -9.4 °F -24.3 °F -14.8 °F 77% 30.40 in 1.0 mi West 6.9 mph - N/A Snow Light Snow
6:35 AM -9.4 °F -25.6 °F -14.8 °F 77% 30.40 in 10.0 mi WNW 8.1 mph - N/A   Scattered Clouds
6:55 AM -9.4 °F -25.6 °F -14.8 °F 77% 30.39 in 7.0 mi WNW 8.1 mph - N/A Snow Light Snow
7:14 AM -11.2 °F -26.4 °F -14.8 °F 84% 30.39 in 10.0 mi WNW 6.9 mph - N/A   Clear
7:35 AM -9.4 °F -24.3 °F -14.8 °F 77% 30.40 in 10.0 mi West 6.9 mph - N/A   Clear
7:55 AM -9.4 °F -24.3 °F -14.8 °F 77% 30.39 in 10.0 mi West 6.9 mph - N/A   Clear
8:14 AM -9.4 °F -26.8 °F -14.8 °F 77% 30.40 in 10.0 mi West 9.2 mph - N/A   Clear
8:35 AM -9.4 °F -26.8 °F -14.8 °F 77% 30.41 in 10.0 mi West 9.2 mph 16.1 mph N/A   Clear
8:55 AM -9.4 °F -27.9 °F -14.8 °F 77% 30.41 in 10.0 mi West 10.4 mph - N/A   Clear
9:15 AM -7.6 °F -26.6 °F -14.8 °F 71% 30.41 in 10.0 mi West 11.5 mph - N/A   Clear
9:35 AM -7.6 °F -27.5 °F -14.8 °F 71% 30.41 in 10.0 mi West 12.7 mph - N/A   Clear
9:55 AM -7.6 °F -25.7 °F -13.0 °F 77% 30.40 in 10.0 mi West 10.4 mph - N/A   Clear
10:15 AM -5.8 °F -21.2 °F -11.2 °F 77% 30.40 in 10.0 mi WNW 8.1 mph 11.5 mph N/A   Clear
10:35 AM -5.8 °F -23.4 °F -11.2 °F 77% 30.41 in 10.0 mi WNW 10.4 mph - N/A   Clear
10:54 AM -5.8 °F -23.4 °F -11.2 °F 77% 30.40 in 10.0 mi WNW 10.4 mph 16.1 mph N/A   Clear
11:15 AM -4.0 °F -22.1 °F -11.2 °F 71% 30.40 in 10.0 mi West 11.5 mph 17.3 mph N/A   Clear
11:35 AM -2.2 °F -18.9 °F -11.2 °F 66% 30.40 in 10.0 mi West 10.4 mph 17.3 mph N/A   Clear
11:54 AM -2.2 °F -21.5 °F -11.2 °F 66% 30.39 in 10.0 mi West 13.8 mph 18.4 mph N/A   Clear
12:15 PM -2.2 °F -20.7 °F -11.2 °F 66% 30.38 in 10.0 mi West 12.7 mph 19.6 mph N/A   Clear
12:35 PM -2.2 °F -22.9 °F -9.4 °F 71% 30.38 in 10.0 mi West 16.1 mph 21.9 mph N/A   Clear
12:54 PM -0.4 °F -19.2 °F -9.4 °F 66% 30.37 in 10.0 mi West 13.8 mph 19.6 mph N/A   Clear
1:15 PM -0.4 °F -19.9 °F -9.4 °F 66% 30.36 in 10.0 mi West 15.0 mph 23.0 mph N/A   Clear
1:35 PM -0.4 °F -19.9 °F -9.4 °F 66% 30.35 in 10.0 mi West 15.0 mph - N/A   Clear
1:54 PM 1.4 °F -17.6 °F -9.4 °F 61% 30.34 in 10.0 mi West 15.0 mph 23.0 mph N/A   Clear
2:15 PM 1.4 °F -18.2 °F -7.6 °F 66% 30.33 in 10.0 mi West 16.1 mph 20.7 mph N/A   Clear
2:35 PM 1.4 °F -14.5 °F -7.6 °F 66% 30.32 in 10.0 mi West 10.4 mph 17.3 mph N/A   Clear
2:55 PM 3.2 °F -13.1 °F -7.6 °F 61% 30.32 in 10.0 mi West 11.5 mph 20.7 mph N/A   Clear
3:15 PM 3.2 °F -15.3 °F -7.6 °F 61% 30.31 in 10.0 mi WSW 15.0 mph - N/A   Clear
3:35 PM 3.2 °F -13.1 °F -7.6 °F 61% 30.30 in 10.0 mi West 11.5 mph 18.4 mph N/A   Clear
3:55 PM 3.2 °F -14.6 °F -5.8 °F 66% 30.30 in 10.0 mi West 13.8 mph 19.6 mph N/A   Clear
4:15 PM 3.2 °F -16.5 °F -5.8 °F 66% 30.29 in 10.0 mi West 17.3 mph 20.7 mph N/A   Clear
4:34 PM 3.2 °F -13.1 °F -5.8 °F 66% 30.30 in 10.0 mi West 11.5 mph - N/A   Clear
4:55 PM 1.4 °F -17.6 °F -5.8 °F 72% 30.29 in 10.0 mi West 15.0 mph - N/A   Clear
5:15 PM 1.4 °F -13.5 °F -5.8 °F 72% 30.28 in 10.0 mi West 9.2 mph - N/A   Clear
5:34 PM 1.4 °F -12.5 °F -5.8 °F 72% 30.28 in 10.0 mi West 8.1 mph - N/A   Clear
5:55 PM 1.4 °F -13.5 °F -5.8 °F 72% 30.28 in 10.0 mi West 9.2 mph - N/A   Clear
6:15 PM -0.4 °F -15.7 °F -5.8 °F 78% 30.28 in 10.0 mi WSW 9.2 mph - N/A   Clear
6:34 PM -0.4 °F -14.7 °F -5.8 °F 78% 30.28 in 10.0 mi WSW 8.1 mph - N/A   Clear
6:55 PM -0.4 °F -16.7 °F -7.6 °F 72% 30.28 in 10.0 mi WSW 10.4 mph - N/A   Clear
7:15 PM -0.4 °F -17.6 °F -7.6 °F 72% 30.27 in 10.0 mi WSW 11.5 mph 16.1 mph N/A   Clear
7:34 PM -0.4 °F -15.7 °F -7.6 °F 72% 30.27 in 10.0 mi WSW 9.2 mph - N/A   Clear
7:55 PM -2.2 °F -18.9 °F -7.6 °F 78% 30.26 in 10.0 mi WSW 10.4 mph - N/A   Clear
8:15 PM -2.2 °F -18.0 °F -7.6 °F 78% 30.26 in 10.0 mi WSW 9.2 mph - N/A   Clear
8:34 PM -2.2 °F -18.9 °F -7.6 °F 78% 30.27 in 10.0 mi WSW 10.4 mph - N/A   Clear
8:55 PM -2.2 °F -16.8 °F -7.6 °F 78% 30.27 in 10.0 mi WSW 8.1 mph - N/A   Clear
9:15 PM -2.2 °F -19.9 °F -7.6 °F 78% 30.26 in 10.0 mi WSW 11.5 mph 16.1 mph N/A   Clear
9:35 PM -2.2 °F -19.9 °F -7.6 °F 78% 30.26 in 10.0 mi WSW 11.5 mph 17.3 mph N/A   Clear
9:55 PM -2.2 °F -18.9 °F -7.6 °F 78% 30.26 in 10.0 mi WSW 10.4 mph - N/A   Clear
10:15 PM -2.2 °F -18.9 °F -7.6 °F 78% 30.26 in 10.0 mi WSW 10.4 mph - N/A   Clear
10:35 PM -2.2 °F -18.0 °F -7.6 °F 78% 30.26 in 10.0 mi WSW 9.2 mph - N/A   Clear
10:55 PM -2.2 °F -18.0 °F -9.4 °F 71% 30.26 in 10.0 mi WSW 9.2 mph - N/A   Clear
11:14 PM -2.2 °F -16.8 °F -9.4 °F 71% 30.26 in 10.0 mi WSW 8.1 mph - N/A   Clear
11:35 PM -4.0 °F -20.2 °F -9.4 °F 78% 30.25 in 10.0 mi WSW 9.2 mph - N/A   Clear
11:55 PM -4.0 °F -20.2 °F -9.4 °F 78% 30.25 in 10.0 mi WSW 9.2 mph - N/A   Clear